Wind_Speed
19 20 21 20 18 18 18 21 24 26 27 26 26 26 25 25 27 28 25 23 21 17 17 17 16 15 14 13 13 12 12 12 11 12 11 11 11 12 11 8 6 5 4 4 4 3 3 3 3 3 3 3 3 3 4 4 5 5 5 5 6 7 8 9 10 11 12 13 13 14 16 17 19 20 20 21 22 23 25 26 27 29 30 31 31
21 22 22 20 19 19 19 22 25 27 28 28 28 29 28 27 30 29 23 19 18 17 16 16 17 16 15 14 13 12 12 12 13 14 13 13 13 13 11 9 7 5 5 4 4 3 2 2 3 3 3 2 3 3 4 5 5 6 7 7 8 9 10 10 11 12 13 13 14 15 17 19 20 21 21 22 23 25 26 27 28 29 30 31 32
22 23 22 20 19 19 20 22 25 26 27 27 27 28 29 29 30 27 20 17 16 16 15 16 17 17 16 15 15 14 14 14 15 16 15 14 13 12 11 9 7 6 5 4 3 2 1 2 2 3 3 2 3 4 5 5 6 7 8 9 10 11 12 12 13 13 14 14 15 16 18 20 21 22 22 23 24 25 26 27 28 29 31 31 32
23 23 21 20 19 19 20 22 25 25 25 27 26 26 27 29 29 25 19 16 13 15 17 17 18 17 17 16 16 16 16 17 18 18 16 14 13 11 10 9 7 4 3 3 2 2 2 2 3 2 2 3 3 4 5 6 7 8 9 10 11 12 13 14 14 14 15 15 16 17 18 20 21 23 24 25 25 26 27 28 29 30 31 31 31
23 22 20 19 18 19 20 21 24 24 25 28 26 25 27 29 26 21 16 10 10 16 19 18 18 17 17 18 18 18 18 19 19 18 16 15 13 11 10 8 5 4 3 3 2 2 2 3 3 3 3 3 4 5 6 7 8 9 10 11 12 13 13 14 15 15 16 16 17 17 18 19 21 23 24 25 26 27 27 28 29 30 30 30 30
24 22 20 20 19 19 20 21 22 24 28 28 24 24 27 25 19 15 13 11 12 18 18 17 17 18 19 18 18 18 18 19 19 17 16 14 12 11 9 6 4 4 3 3 2 2 3 3 3 3 3 4 5 6 7 9 10 11 12 13 13 14 14 15 16 16 16 17 17 18 18 19 20 22 23 25 27 28 29 29 30 30 30 30 29
25 24 22 21 21 21 20 20 21 25 29 25 22 24 23 18 15 14 14 15 16 17 16 16 18 20 20 18 16 15 16 18 18 16 15 14 12 11 10 6 4 3 3 3 3 3 3 4 5 5 5 5 7 8 9 10 11 12 13 14 14 14 15 15 16 16 16 17 17 17 18 19 19 21 22 24 26 28 30 31 30 29 29 29 29
26 24 23 22 22 22 20 20 21 25 28 23 21 21 18 16 16 16 16 16 16 16 16 17 19 20 20 16 13 14 17 19 18 17 15 14 13 12 9 6 3 3 2 3 2 3 4 5 5 6 6 7 8 9 10 12 13 13 14 14 14 15 15 15 16 16 16 16 17 17 17 18 19 21 22 23 25 26 27 29 30 29 28 28 29
27 24 23 23 23 21 21 21 22 26 27 22 20 20 18 18 17 16 17 17 18 17 17 19 20 20 18 14 13 16 19 18 17 16 15 14 13 11 9 5 3 3 3 2 2 3 4 6 7 7 8 9 10 11 12 13 13 14 14 14 15 15 15 16 16 16 16 16 16 17 18 19 20 22 23 24 24 24 24 25 27 28 29 29 30
26 24 23 24 23 22 21 21 22 26 25 20 20 21 19 19 16 16 18 18 18 16 16 19 20 18 17 15 15 17 18 17 16 15 14 14 12 11 9 6 4 4 3 3 4 5 6 8 9 10 11 12 12 13 13 14 14 14 15 15 15 16 16 16 16 15 15 15 16 17 18 20 22 23 23 24 23 23 22 22 23 25 28 29 30
26 25 25 25 24 23 22 22 23 26 24 21 22 21 20 18 16 17 19 19 18 15 15 19 18 17 17 16 14 15 17 16 15 14 14 13 12 12 10 7 4 5 5 6 7 8 9 10 11 12 13 14 14 14 14 14 14 15 15 15 16 16 16 15 15 15 15 15 17 18 20 21 22 23 23 22 22 21 20 21 22 24 26 28 29
27 27 27 27 25 24 23 22 25 26 25 25 24 21 19 17 16 19 20 19 18 16 17 18 17 17 17 15 14 16 16 15 14 14 13 12 12 12 11 8 7 7 7 8 10 10 11 12 13 14 15 14 14 14 14 14 14 15 15 15 16 15 15 14 14 14 15 16 17 19 20 21 22 22 22 21 20 20 20 21 22 24 25 26 28
29 28 28 28 26 24 24 24 26 27 27 27 25 22 19 16 17 20 20 19 18 16 17 16 16 17 16 14 15 16 15 14 14 13 12 12 11 10 10 11 11 11 10 11 12 12 13 14 15 15 15 15 14 14 14 14 14 15 15 15 14 14 13 13 13 14 15 17 18 20 21 22 22 22 21 20 20 20 21 22 22 23 23 24 26
29 29 28 28 27 25 25 25 26 27 28 27 25 22 19 17 18 19 19 19 18 17 17 16 15 15 13 14 15 16 15 14 14 13 12 12 11 10 11 13 13 14 14 14 14 14 15 15 16 16 15 15 14 13 14 14 14 14 13 13 12 12 12 12 13 14 16 18 19 20 21 21 21 20 20 20 20 21 22 22 21 21 22 22 24
29 30 29 28 28 26 25 26 26 28 28 27 26 23 20 18 18 20 19 18 17 17 17 15 15 14 14 16 16 16 15 14 13 13 12 12 12 13 13 14 14 15 15 16 16 16 16 16 16 16 15 14 13 14 14 14 13 12 12 11 11 11 11 12 13 15 17 18 19 20 20 20 19 19 20 20 22 23 23 22 22 21 20 20 21
31 31 30 29 28 27 26 26 27 28 28 27 26 23 20 19 19 22 21 17 16 17 17 16 16 16 16 16 16 16 15 14 13 13 12 12 13 14 14 14 14 15 15 16 17 17 16 16 16 15 14 13 14 14 14 13 12 11 11 11 11 11 11 13 14 16 18 19 19 19 18 18 18 19 20 21 22 22 22 23 23 23 23 21 21
31 30 30 29 28 27 26 26 26 27 27 27 26 23 21 19 21 23 21 18 17 17 17 17 18 17 16 15 16 17 16 14 13 12 12 12 13 14 14 14 14 14 16 17 17 16 16 16 15 14 13 13 13 13 12 11 11 11 11 10 10 11 12 14 16 17 18 18 18 18 17 18 19 20 21 22 22 22 23 23 24 25 26 26 25
29 28 29 29 28 27 27 27 26 27 27 26 26 23 21 21 22 22 20 18 18 17 17 18 18 17 15 15 16 17 16 14 13 12 12 13 13 13 13 13 13 14 15 15 15 15 15 14 13 13 13 13 12 11 11 11 11 10 10 10 11 12 13 15 17 17 18 17 17 17 17 18 19 20 21 21 22 23 24 25 26 26 27 28 29
28 28 28 28 27 28 28 27 26 27 27 26 25 24 23 22 22 22 20 18 17 16 16 17 17 16 15 15 16 17 16 14 13 12 12 12 13 13 13 13 13 13 13 13 13 13 13 13 13 13 12 11 10 10 10 10 10 10 10 10 11 12 14 16 17 17 17 17 17 17 18 19 20 20 20 21 22 23 24 26 27 28 28 29 30
29 29 28 27 25 27 28 27 27 27 27 26 25 25 24 23 23 22 19 17 16 16 16 17 17 16 16 16 17 17 16 15 13 12 12 12 12 12 12 12 12 12 11 11 12 12 12 13 13 12 10 10 10 10 10 10 10 10 10 10 12 14 15 17 17 17 17 17 17 17 18 19 19 20 20 21 22 24 25 26 27 28 29 30 30
31 31 30 27 24 26 28 27 27 27 27 27 26 26 25 24 23 20 18 16 16 18 19 18 18 18 18 18 17 17 17 15 14 13 13 12 11 11 11 11 11 11 11 11 11 12 13 13 11 10 9 10 10 10 10 10 10 10 10 11 12 15 16 16 17 17 16 16 17 17 18 19 19 20 20 21 23 24 25 26 27 28 30 31 31
32 32 30 26 22 24 27 27 27 27 28 27 26 26 26 24 22 20 18 17 18 19 19 19 19 20 20 19 18 18 17 16 15 14 13 12 10 10 10 10 10 10 10 11 12 13 13 11 9 9 9 10 10 10 10 10 10 9 10 12 14 15 16 16 16 16 15 16 16 17 17 18 19 19 20 21 22 23 24 25 26 28 29 30 31
33 31 28 24 21 23 26 27 26 27 28 28 27 27 26 24 22 20 19 19 19 20 20 20 20 20 20 20 18 18 17 16 15 15 14 12 10 10 10 10 10 10 10 12 13 13 11 9 9 9 9 9 10 10 10 10 9 9 10 12 14 14 15 15 15 15 15 15 16 16 17 17 18 19 20 21 22 22 23 24 25 27 27 28 29
33 30 27 23 22 24 26 27 26 27 28 28 28 27 25 24 23 21 20 20 21 21 21 21 20 20 20 19 19 18 17 16 16 15 14 12 11 11 11 11 11 11 11 13 14 12 10 9 9 9 9 9 10 10 10 10 9 9 11 13 13 14 14 14 14 14 14 14 15 16 16 17 18 19 20 21 21 22 23 24 24 25 26 27 28
31 29 27 25 25 25 25 25 25 26 27 28 28 27 25 25 24 22 21 21 22 23 22 21 20 20 20 19 19 18 17 17 17 16 15 13 12 12 12 12 12 12 13 14 14 11 10 9 9 9 9 10 10 10 10 10 9 10 11 12 13 13 13 13 13 13 13 14 15 15 16 17 17 19 20 20 21 21 22 23 23 24 25 26 27
29 28 27 26 26 25 25 24 25 26 26 28 28 27 26 26 25 23 22 22 23 23 22 21 20 20 20 19 19 19 18 18 18 17 16 15 14 12 12 13 13 13 14 14 13 11 10 10 10 10 10 10 11 10 10 9 10 10 11 11 12 12 12 12 12 12 13 13 14 14 15 16 17 18 19 20 20 21 21 21 22 23 24 25 26
27 26 26 26 26 26 25 25 25 25 26 27 28 27 27 26 25 24 23 23 24 24 22 21 21 20 20 19 19 20 20 20 19 18 17 16 14 13 13 14 13 14 15 15 13 11 11 11 10 11 11 11 11 10 9 9 10 10 10 11 11 11 11 11 11 11 12 12 13 14 14 15 16 17 17 18 19 20 20 21 21 22 24 25 27
26 25 25 25 26 26 25 25 25 25 26 27 28 28 28 26 25 24 24 24 24 24 23 22 21 21 21 21 21 21 21 21 21 20 19 17 15 14 14 14 14 15 15 14 13 12 11 11 11 11 12 12 12 10 9 9 10 10 10 10 10 10 10 10 10 10 11 11 12 13 14 15 16 16 17 17 18 19 19 20 21 22 24 25 27
25 25 25 25 25 24 24 25 24 24 25 27 28 29 28 26 25 25 25 25 25 24 23 22 22 22 22 22 22 22 22 22 22 21 20 18 16 15 15 15 15 15 15 14 13 12 12 12 12 12 13 13 11 10 9 9 10 9 9 10 9 9 9 9 9 9 10 10 11 12 13 14 15 16 17 18 18 18 19 20 21 22 24 26 28
25 25 23 22 21 22 23 25 24 23 24 26 28 30 28 25 24 25 25 25 25 25 24 23 23 23 23 23 24 24 25 24 23 22 20 18 17 16 16 16 16 15 14 14 13 13 13 13 13 13 14 13 11 10 10 10 10 9 9 9 9 9 8 8 8 8 8 9 10 11 12 13 14 15 16 17 18 19 20 21 23 24 26 28 30
23 21 19 18 18 20 23 25 25 24 23 24 26 28 28 25 24 25 26 26 26 26 25 24 23 23 23 25 26 27 27 26 24 22 20 19 18 18 18 18 17 15 15 14 14 14 14 14 14 14 14 13 11 10 10 10 9 9 8 8 8 8 7 7 7 7 7 8 9 10 11 12 13 14 15 16 17 19 20 22 24 26 27 29 31
17 17 17 17 18 21 23 25 25 24 24 23 24 26 28 27 26 25 26 26 27 27 26 25 25 24 24 26 28 29 29 27 25 22 21 20 20 19 19 18 17 16 16 15 15 16 16 16 16 15 14 13 12 11 11 10 9 8 8 8 8 7 7 6 6 6 6 7 8 9 10 11 12 13 14 16 17 18 20 22 24 26 28 30 32
13 14 15 17 19 21 23 24 24 24 23 23 23 25 26 27 26 26 26 27 28 28 27 27 27 26 26 26 28 29 29 28 26 24 22 22 21 20 20 18 17 17 17 17 17 17 17 17 16 16 15 14 12 12 11 10 9 8 8 8 7 7 6 5 5 5 6 6 7 8 9 10 11 12 13 15 16 18 19 21 23 25 27 28 30
13 14 15 17 19 20 22 23 24 23 23 23 23 25 26 26 26 26 27 28 29 29 29 29 29 29 28 28 29 30 30 29 27 25 24 23 22 21 19 18 17 18 18 18 18 18 18 18 17 16 16 14 13 12 12 11 9 8 8 8 7 7 6 5 4 4 5 5 6 7 8 9 10 11 12 14 15 17 18 20 22 24 26 27 28
14 16 18 19 19 19 20 21 22 23 24 24 25 25 25 25 25 25 27 28 29 30 31 31 31 31 31 31 31 31 31 30 28 26 25 23 22 20 18 16 17 18 19 20 19 19 19 19 18 17 16 15 14 13 12 11 10 9 8 8 8 7 6 4 3 3 4 5 5 6 7 9 9 10 12 13 14 16 18 19 21 23 25 26 28
14 16 19 19 19 19 19 19 20 21 22 23 24 24 23 24 25 26 28 29 31 32 33 33 34 34 34 35 34 32 32 32 29 27 25 24 22 19 17 16 17 18 20 21 20 20 20 19 18 18 16 15 14 14 13 11 10 9 9 9 8 7 6 4 3 4 4 5 5 6 7 8 9 10 11 12 14 16 17 19 20 21 23 25 27
16 18 19 20 20 20 20 20 20 19 20 20 21 21 22 24 27 29 30 31 32 33 34 36 37 37 38 39 36 34 33 31 28 26 26 25 23 21 18 18 18 18 20 21 22 22 21 20 19 18 17 16 15 14 13 11 10 10 10 9 9 8 6 5 4 4 5 5 5 6 8 9 9 10 11 12 14 15 17 18 19 20 21 22 24
19 20 21 21 21 21 21 21 22 21 21 20 19 20 22 25 29 31 32 32 32 33 35 36 39 41 42 40 36 33 31 28 26 27 28 27 25 24 21 19 19 20 21 22 23 23 22 21 20 18 17 16 15 15 13 12 11 10 10 10 9 8 7 5 5 5 5 5 6 7 8 9 10 10 11 12 14 15 16 17 19 20 21 22 23
21 21 22 21 21 20 21 22 22 22 22 21 21 23 25 27 29 30 30 30 30 32 35 37 38 40 40 39 37 34 29 27 28 28 29 29 28 26 23 21 20 21 22 23 23 23 22 21 20 19 18 17 16 15 14 12 11 11 11 11 10 9 7 6 6 6 6 6 6 7 8 9 10 11 11 12 14 15 16 18 19 20 22 23 25
21 21 21 21 21 20 20 19 19 20 21 23 24 25 26 26 27 26 26 26 26 27 30 34 36 34 33 35 37 34 27 26 30 29 28 29 31 29 25 21 21 21 22 23 23 23 23 22 21 21 19 18 17 16 15 13 12 11 12 11 10 10 8 7 7 7 7 7 7 7 8 9 10 11 11 12 14 15 17 18 19 21 22 24 26
20 19 19 20 20 19 17 15 15 18 20 21 23 24 24 23 23 23 23 24 25 24 26 29 30 28 29 32 35 33 27 24 29 30 27 26 29 30 27 22 21 22 23 23 23 23 23 23 22 21 20 18 18 17 15 14 13 12 12 12 11 10 9 8 8 8 7 8 7 8 8 8 10 11 12 13 14 16 17 19 20 22 24 25 27
19 17 18 18 18 17 16 15 15 15 16 17 18 19 19 19 19 20 20 21 21 22 24 26 27 28 30 32 31 29 24 21 25 29 27 24 25 28 27 23 21 23 23 23 23 23 23 23 23 22 20 19 19 18 16 15 14 13 13 13 12 11 10 9 9 8 8 8 8 8 8 8 9 11 12 13 15 16 18 19 21 22 24 25 27
15 13 15 16 16 17 17 16 15 14 14 15 14 15 16 16 17 19 19 18 18 19 22 26 29 30 30 28 26 25 23 23 26 28 27 25 24 27 28 25 22 23 24 23 23 23 24 24 23 22 21 20 20 19 17 16 15 15 14 13 13 12 11 11 10 9 8 9 9 9 8 8 9 11 12 13 14 16 18 19 20 22 24 25 26
13 12 12 14 15 17 17 16 16 15 15 16 16 16 16 16 17 18 18 18 19 19 21 24 29 32 32 29 29 27 23 22 23 23 24 25 25 27 31 28 23 23 24 23 23 24 24 24 24 23 21 21 21 20 18 17 16 16 15 14 13 12 12 11 11 10 9 9 9 9 8 9 10 11 12 12 14 16 17 19 20 22 24 25 27
14 14 15 15 16 17 17 17 17 17 17 18 17 16 14 14 15 17 17 18 20 20 19 20 23 28 30 29 28 25 21 21 22 23 23 23 21 24 28 26 23 23 24 23 23 24 24 25 25 24 23 22 22 21 19 18 17 17 16 15 14 13 12 12 12 11 10 10 9 9 9 10 10 11 12 12 14 16 17 19 21 23 24 26 27
15 16 17 17 17 17 17 17 17 17 17 18 16 14 13 13 14 16 18 19 19 19 18 18 20 25 28 27 24 22 23 26 26 25 25 24 21 21 24 25 23 23 23 24 24 24 25 26 26 25 24 23 23 22 20 19 18 18 17 16 15 14 13 13 13 12 11 10 10 10 11 11 11 12 12 13 14 16 18 20 22 24 25 27 29
18 17 18 17 17 16 16 16 17 17 17 18 17 15 15 15 16 17 19 20 20 19 18 18 20 24 27 28 27 26 26 28 29 29 29 28 25 24 25 25 24 23 24 25 25 25 26 26 26 26 25 24 24 23 21 20 19 18 18 17 15 14 14 14 13 13 12 11 11 12 12 12 12 12 13 13 14 17 18 20 22 24 26 28 29
21 21 20 19 18 18 17 17 18 18 18 19 19 18 17 18 18 20 21 22 21 19 20 21 23 25 26 27 29 28 25 24 27 30 30 26 24 25 26 25 23 23 24 25 25 24 24 26 27 26 25 25 24 23 21 20 20 19 19 18 17 15 15 14 14 14 13 12 12 13 13 13 13 13 13 14 15 17 19 21 23 25 27 28 29
23 23 23 22 20 20 20 20 20 20 20 21 21 21 21 21 22 22 23 23 22 20 22 24 25 26 26 26 28 29 26 23 26 29 29 25 24 27 27 26 24 24 25 25 25 23 23 26 27 26 25 24 23 22 22 22 21 21 21 20 18 16 15 15 15 14 14 13 13 14 14 14 14 13 13 14 15 17 20 22 24 26 27 28 30
25 25 24 24 23 23 24 24 23 22 22 22 23 23 23 24 24 24 25 25 23 22 23 26 27 26 26 26 26 27 26 24 25 27 26 24 26 30 30 28 27 27 28 27 27 26 27 28 28 27 26 25 25 25 26 25 24 24 23 21 18 17 17 16 16 16 15 15 15 15 15 15 14 14 14 14 15 17 19 21 23 26 28 29 30
26 26 25 25 25 25 26 25 24 22 22 23 23 24 25 25 26 26 26 26 25 23 23 26 29 28 27 27 28 28 26 24 23 23 23 24 27 29 30 30 30 31 31 29 29 30 31 33 32 31 30 29 30 30 28 26 25 25 23 21 19 18 18 18 17 17 16 16 15 15 15 15 15 15 14 14 15 17 18 20 22 25 27 29 30
Wind_Direction
209 217 213 208 212 222 229 230 227 226 224 221 222 227 227 228 230 226 216 210 215 217 214 215 216 213 213 218 219 214 209 210 216 222 223 220 216 213 217 221 223 239 264 269 271 279 299 319 331 344 359 6 9 8 8 6 1 352 339 327 316 308 304 301 301 302 303 305 308 312 315 317 318 319 320 321 322 322 322 322 322 323 324 324 324
211 214 211 209 214 222 229 231 231 230 230 225 224 228 229 231 235 234 227 218 221 226 219 211 213 212 209 214 216 211 208 212 217 218 218 217 213 214 218 219 223 243 260 258 259 273 293 320 342 355 5 12 11 8 4 358 350 343 335 327 319 313 309 308 305 305 304 305 307 309 311 313 314 316 317 318 319 319 320 320 321 322 323 323 322
212 213 211 211 215 222 229 232 232 232 232 231 228 228 228 231 237 240 229 214 221 228 217 210 212 211 210 214 214 208 208 212 214 213 213 214 214 217 218 215 223 242 252 251 258 277 307 347 3 6 5 10 9 3 356 349 340 334 329 322 317 313 309 308 306 305 304 303 303 304 307 311 312 314 315 317 318 318 318 319 321 322 322 321 321
210 211 210 213 217 224 230 233 234 233 233 234 232 228 228 231 236 240 227 209 218 223 212 210 212 211 213 215 213 208 207 209 209 208 209 211 212 216 218 219 229 252 263 267 273 294 336 359 7 6 4 5 358 352 346 339 333 328 324 318 313 310 307 306 307 305 304 301 300 302 306 310 313 315 316 316 316 317 318 320 321 321 320 320 320
205 209 211 215 222 228 233 237 236 235 234 234 232 228 229 233 235 238 234 226 221 212 208 209 212 215 218 219 214 206 205 206 207 207 207 208 209 213 219 223 242 277 281 279 279 307 343 351 354 353 352 353 346 342 337 332 328 322 317 313 309 307 307 306 306 304 303 300 300 303 308 312 315 315 316 315 316 318 320 321 321 321 321 320 320
203 207 213 219 225 232 236 240 240 236 236 236 232 228 229 234 239 241 246 248 228 212 208 209 215 221 224 223 213 204 204 203 204 206 204 203 205 210 218 225 249 277 280 291 305 322 336 331 328 331 335 339 336 332 328 324 320 316 312 311 310 308 308 306 305 303 302 301 301 305 309 312 314 315 316 317 319 320 321 322 322 322 321 320 320
204 206 212 219 224 230 233 238 240 238 239 239 234 233 232 235 241 241 241 238 228 218 213 215 220 224 227 224 212 203 202 200 202 203 199 199 204 209 214 219 242 268 288 308 318 316 314 311 311 317 323 326 324 320 318 315 313 312 310 310 309 307 306 305 304 302 300 301 303 306 309 311 313 315 318 320 322 323 323 322 322 321 320 319 320
206 208 212 219 225 228 230 233 236 239 241 239 236 238 237 233 232 233 234 233 227 219 216 222 227 229 231 226 212 203 198 196 199 199 195 197 202 207 210 214 234 256 272 288 306 310 306 303 302 309 313 314 313 311 311 310 310 310 309 309 308 307 306 304 302 301 301 302 304 307 309 311 314 317 321 323 325 325 323 321 320 319 319 320 320
209 210 214 222 227 229 230 231 232 239 241 236 234 237 234 231 228 227 229 229 226 221 218 226 232 235 237 233 217 202 193 193 198 196 193 194 198 204 207 210 234 251 256 266 289 301 302 301 302 305 307 307 308 308 308 308 308 309 310 310 309 307 306 304 302 301 302 304 307 309 311 315 319 322 324 325 324 323 321 319 318 318 319 320 322
210 213 218 225 229 229 230 230 231 238 241 235 234 235 232 231 227 223 227 231 232 227 221 226 234 239 240 237 224 199 187 192 197 195 195 197 201 206 209 213 235 257 264 272 282 290 296 300 301 303 304 305 306 307 308 308 309 311 312 312 310 308 306 304 304 305 308 311 313 316 319 323 325 325 324 323 321 319 318 319 319 320 321 322 323
211 216 222 228 231 230 229 229 230 235 237 234 233 233 232 230 225 225 231 239 240 233 224 226 234 239 237 234 220 191 185 194 198 198 200 204 209 214 218 226 250 273 281 284 288 291 294 296 299 301 302 303 305 306 308 309 312 313 313 312 310 308 307 307 309 311 314 317 320 323 325 325 324 322 321 319 319 318 320 322 325 326 326 325 325
214 218 225 229 231 232 231 229 228 231 233 233 233 232 233 229 226 229 233 239 242 234 226 228 233 234 230 223 203 187 192 199 200 202 203 209 218 221 228 239 258 275 285 293 295 293 294 296 298 299 300 302 305 307 309 312 313 314 313 311 309 308 309 310 313 316 319 322 324 325 324 323 322 321 320 319 320 323 326 329 330 330 329 328 327
218 222 228 231 231 233 234 231 228 229 231 233 232 232 233 227 225 232 234 236 237 231 227 231 232 228 224 218 199 192 200 202 201 205 206 214 222 225 233 245 257 267 279 294 299 296 295 296 296 297 299 302 305 308 311 313 313 313 311 309 308 308 310 313 317 321 324 325 325 324 323 322 322 321 321 323 325 329 331 332 332 333 334 334 331
223 227 232 233 232 233 234 232 229 228 230 230 230 230 229 221 223 232 236 235 231 225 227 232 231 226 224 219 203 198 205 204 202 206 208 217 225 230 240 250 257 262 271 289 298 296 294 294 294 296 298 301 306 310 313 313 311 310 308 307 308 310 314 318 322 324 325 325 324 324 324 323 323 323 325 327 329 331 332 332 333 336 338 337 334
229 233 236 236 233 232 233 233 230 230 230 228 226 227 222 214 221 231 235 235 228 222 226 230 230 225 221 217 207 203 208 208 206 208 212 220 228 236 246 255 259 261 269 285 294 292 291 292 292 295 298 303 309 312 312 310 307 306 306 309 311 315 319 321 324 325 326 326 326 325 325 325 325 326 328 331 332 333 333 333 335 338 340 342 339
234 238 239 239 235 232 233 233 231 231 230 227 225 224 216 211 220 228 230 231 226 222 227 230 225 221 218 215 207 203 207 210 210 212 217 224 232 241 251 257 259 262 270 282 287 287 288 290 291 295 300 307 310 309 308 306 306 308 311 314 316 318 321 324 326 327 327 327 327 327 327 327 328 330 332 334 334 334 335 336 338 340 342 345 347
236 239 240 241 237 233 234 233 232 232 231 228 224 219 213 212 219 227 228 228 226 222 223 223 216 212 214 211 203 200 205 211 212 216 222 229 238 247 254 257 259 264 271 278 281 283 287 288 291 297 303 306 306 305 305 305 309 313 315 317 318 321 325 326 327 327 327 329 329 329 329 330 333 335 336 336 336 337 338 340 342 343 344 346 350
234 236 236 238 235 232 234 234 232 232 231 227 222 215 212 214 220 226 227 227 226 221 218 216 209 206 210 207 202 201 206 212 214 218 224 231 240 248 252 256 260 265 270 274 277 281 284 287 294 299 300 301 302 304 306 308 312 314 315 317 320 324 327 327 327 328 330 331 331 331 333 336 338 338 337 338 340 341 342 343 345 346 347 348 350
230 231 230 231 230 229 233 234 231 229 229 225 217 212 212 216 220 224 225 224 220 214 213 213 206 205 208 208 206 206 210 215 214 216 223 231 240 246 251 256 260 265 268 272 277 280 284 290 294 294 295 298 302 305 308 310 311 312 314 318 322 325 327 327 329 331 333 333 333 335 338 340 339 339 340 342 343 345 345 346 346 346 349 350 350
227 225 225 226 226 227 231 234 231 228 227 222 213 209 211 216 219 221 222 222 214 205 206 208 205 205 208 208 208 209 213 215 213 217 224 231 239 245 252 257 260 263 267 273 278 282 286 288 287 288 293 300 303 305 306 307 307 309 314 319 323 326 327 330 332 334 334 334 336 340 341 341 340 341 343 344 346 348 348 347 346 347 349 350 350
223 221 223 222 221 224 229 231 229 227 226 220 210 207 210 215 218 218 216 217 212 203 201 204 205 206 207 207 208 211 213 214 215 221 224 228 237 245 252 256 258 262 269 276 282 284 283 281 281 288 296 298 300 301 301 303 304 308 316 321 324 327 329 332 334 335 335 337 340 342 341 341 342 343 345 347 348 349 348 348 347 348 348 348 349
220 221 222 222 219 221 227 230 229 227 225 218 210 207 210 214 216 215 212 213 212 204 201 204 206 206 207 207 209 211 212 215 219 222 222 226 236 244 250 254 257 264 271 279 282 278 274 276 282 290 294 295 296 296 297 299 303 311 318 322 325 328 330 333 334 335 337 339 341 341 341 342 343 344 346 348 350 349 348 348 348 348 348 348 348
219 222 222 223 220 218 224 229 229 227 225 218 209 208 211 213 213 213 212 212 212 208 205 206 207 208 209 210 211 211 214 218 221 220 221 228 238 246 252 256 260 268 275 278 276 271 271 277 285 288 289 289 290 292 295 297 303 312 318 322 326 328 331 333 334 337 339 340 340 341 342 343 343 345 347 348 349 348 348 348 348 347 348 349 350
218 221 221 222 221 218 221 227 228 226 223 216 208 208 212 211 211 212 212 212 212 211 210 210 211 211 211 211 212 214 218 221 221 221 224 234 244 251 257 261 265 270 273 273 271 268 272 278 281 283 283 285 287 289 292 295 301 309 317 322 326 328 331 332 334 338 340 340 340 341 343 344 344 346 348 348 348 348 347 347 347 347 348 350 351
218 218 218 220 223 222 220 224 227 225 221 214 207 208 212 211 211 212 211 212 212 213 213 214 216 216 215 214 214 217 220 222 221 223 230 241 250 254 259 263 267 269 269 270 268 268 273 275 277 278 278 281 284 285 287 290 297 308 316 321 325 328 331 332 335 339 339 339 339 341 343 344 345 347 348 347 346 346 347 347 346 347 349 350 351
218 219 220 220 224 225 220 218 222 223 219 213 208 208 211 211 211 212 211 212 214 215 217 218 219 220 219 217 218 219 221 222 223 227 236 246 250 253 259 263 266 267 266 265 265 267 270 271 272 273 275 278 278 279 281 285 295 307 314 320 324 328 330 332 336 338 338 338 338 341 344 344 346 348 348 345 344 346 347 346 347 349 350 351 353
220 220 221 222 225 227 221 214 215 218 216 212 211 210 210 210 211 211 211 213 214 216 219 221 222 222 221 220 220 220 221 222 225 231 240 245 246 251 259 263 265 264 262 261 262 265 267 269 269 270 271 272 271 272 275 282 295 305 311 318 323 326 330 332 334 336 336 336 338 341 344 344 347 349 347 344 345 347 347 347 349 351 352 353 355
221 222 223 223 224 227 223 213 210 213 212 212 213 211 209 210 210 211 212 213 215 217 219 223 224 222 221 221 220 221 222 223 227 234 241 242 244 251 258 262 263 260 257 258 259 263 265 265 265 265 266 266 265 266 270 282 293 301 309 317 322 325 328 330 331 333 334 336 338 342 343 345 348 347 345 345 347 347 348 349 351 353 354 355 357
221 223 223 223 224 226 223 214 209 209 209 211 212 211 208 208 209 211 213 214 216 217 220 224 225 223 223 222 222 223 223 225 229 235 238 240 244 252 257 262 262 256 254 256 259 262 262 260 260 260 260 261 260 261 268 280 289 297 307 315 319 324 325 326 329 330 333 337 339 342 345 347 347 346 346 347 348 349 349 350 352 355 357 358 359
223 224 226 228 227 225 220 214 209 207 208 210 211 210 209 207 209 212 214 215 217 219 222 225 225 223 225 224 224 224 224 225 229 234 236 240 246 252 257 260 259 255 254 256 258 258 257 255 256 256 256 256 255 257 266 276 284 293 305 311 316 319 318 320 325 326 333 338 338 342 347 347 346 346 348 349 351 351 351 352 354 355 357 359 0
227 228 230 230 226 219 215 211 208 206 206 208 209 209 210 211 212 214 216 216 218 220 223 224 224 224 226 227 226 225 224 224 229 233 235 241 247 252 257 260 259 256 256 256 256 255 253 252 252 253 254 252 250 255 264 272 278 289 301 307 310 310 310 314 318 325 334 337 338 344 347 346 346 347 349 351 354 354 354 355 356 356 358 359 359
232 230 228 222 216 213 210 207 205 205 206 207 207 210 214 216 216 217 218 218 219 221 223 224 224 224 226 228 227 225 223 224 228 232 234 240 247 252 257 261 259 257 255 254 253 251 250 249 250 251 251 248 247 254 262 267 274 286 296 301 301 300 301 305 312 325 334 334 338 344 344 344 346 347 350 353 356 356 356 357 358 358 360 0 360
224 223 221 214 208 207 206 204 203 203 205 207 209 213 215 216 217 218 220 221 222 223 224 224 225 226 227 229 227 224 223 224 227 229 233 239 245 251 256 259 259 257 252 250 250 249 248 248 248 250 249 245 245 252 259 263 271 282 290 291 290 289 290 295 307 323 329 331 337 340 339 341 344 347 352 356 357 358 358 358 360 -0 1 2 2
213 210 205 200 197 198 199 200 200 201 203 206 210 212 212 213 215 218 220 222 223 224 226 227 228 228 229 229 228 225 223 223 225 226 231 238 244 249 254 258 258 255 250 248 248 247 246 246 247 248 246 243 245 252 256 260 268 277 282 280 277 275 277 283 297 315 320 324 331 333 333 337 342 347 353 357 358 358 358 359 360 0 -0 1 2
208 202 193 184 180 183 187 192 196 199 202 206 210 211 211 214 217 219 222 224 224 225 227 229 230 231 230 231 231 229 225 222 222 224 229 236 242 246 252 257 257 253 248 247 246 246 246 246 245 246 243 241 245 251 254 257 265 272 272 268 266 263 263 270 283 298 306 312 321 324 327 333 340 346 353 357 357 356 357 359 359 359 359 359 360
191 192 189 183 179 179 180 185 191 197 202 206 208 210 212 216 220 222 223 224 225 227 228 229 232 233 233 232 230 227 225 220 218 222 228 234 239 245 251 257 259 254 250 248 247 245 246 245 244 243 240 240 245 250 251 255 262 266 264 260 256 254 254 258 268 280 290 299 310 317 322 328 335 343 350 354 355 354 355 357 358 358 358 359 359
178 179 182 183 185 186 186 188 192 196 201 205 207 209 212 216 220 223 225 226 228 229 230 231 233 235 236 235 229 224 224 221 215 218 228 233 238 243 250 255 256 253 250 249 247 244 243 242 241 239 236 238 245 247 248 253 258 259 258 254 250 249 247 250 260 270 278 290 303 312 320 326 331 339 347 351 352 352 354 356 356 355 356 358 358
183 182 182 183 184 186 190 194 196 198 200 202 206 211 215 219 223 226 229 232 233 235 236 236 236 236 238 241 239 236 234 227 219 220 226 232 237 241 245 248 249 249 247 246 245 243 241 240 238 235 233 237 242 244 245 250 254 254 253 250 247 245 243 244 256 265 271 285 298 309 318 325 329 335 343 348 349 350 351 354 353 352 354 355 356
190 189 188 188 189 192 196 201 203 204 203 204 208 214 219 225 228 231 235 237 239 240 240 239 239 239 240 244 248 250 241 225 221 225 227 231 236 236 234 237 242 245 245 244 244 242 240 239 236 232 233 236 240 241 243 247 250 249 248 247 244 243 242 244 254 263 270 281 293 305 316 323 327 333 341 346 347 348 349 351 352 352 354 355 355
196 192 192 195 199 204 208 212 215 215 213 214 218 222 228 233 237 241 243 244 245 244 241 238 238 241 245 247 251 259 251 226 221 228 231 233 235 231 227 231 237 241 241 240 242 242 239 238 234 230 232 236 238 238 240 243 245 243 243 243 241 241 241 244 252 261 269 279 290 302 312 320 325 331 339 345 346 346 347 350 351 351 354 356 356
202 199 201 206 210 213 216 217 216 215 216 220 224 228 234 238 243 248 251 251 251 248 242 237 235 239 247 249 252 263 263 238 226 231 240 246 243 233 226 225 230 235 237 237 239 240 239 237 234 231 232 235 236 236 237 239 239 238 237 238 238 238 240 245 253 261 269 279 288 298 307 317 325 330 338 344 345 344 345 348 350 351 353 355 355
212 208 206 209 211 211 209 203 202 205 211 216 221 227 232 238 244 249 252 254 254 249 243 237 230 232 243 249 252 260 265 253 243 246 254 261 252 237 229 226 225 229 233 233 235 238 238 236 233 231 232 234 234 235 236 236 235 233 232 233 234 236 239 245 252 259 270 281 287 293 303 314 323 328 335 342 343 342 343 346 348 350 351 353 353
218 212 207 205 203 202 200 199 203 208 212 217 222 227 232 238 242 244 248 252 253 250 245 238 229 227 236 245 250 256 261 261 258 257 259 263 255 239 231 227 224 227 232 232 233 235 236 234 231 230 232 234 233 233 233 233 232 230 228 229 231 234 239 245 251 258 269 280 285 290 300 312 319 324 331 339 342 341 341 344 347 348 349 350 351
201 197 198 199 199 202 205 206 209 211 213 218 222 225 230 237 242 245 249 248 247 248 246 239 231 228 232 238 244 250 257 258 256 257 260 264 261 248 237 228 222 226 231 232 233 234 234 232 230 229 231 232 232 232 232 231 229 227 225 226 228 233 240 247 253 259 268 277 282 288 298 307 314 319 326 337 341 339 339 342 345 347 347 348 349
193 190 191 193 198 204 208 209 209 209 213 218 222 227 234 242 250 256 257 252 248 249 248 240 230 227 230 236 240 244 250 254 256 261 263 265 264 256 245 237 230 230 232 233 234 234 233 230 228 229 231 232 231 231 231 230 228 225 222 223 227 233 241 249 255 261 267 273 280 286 294 302 309 314 323 334 338 338 339 342 344 345 345 346 348
207 204 201 201 204 208 209 210 210 210 215 222 227 233 242 252 259 265 265 261 253 248 246 241 229 223 228 235 240 246 253 256 258 262 265 268 267 253 240 236 236 235 235 236 236 234 232 229 227 228 231 231 230 230 229 228 227 224 221 222 226 232 241 249 256 261 265 270 277 284 290 298 304 311 320 330 335 336 339 342 344 344 344 345 347
220 218 215 214 216 218 218 217 216 215 219 227 234 238 245 254 259 261 264 264 256 244 239 240 237 232 234 238 242 249 253 253 252 257 262 266 261 243 230 231 235 234 234 236 235 233 231 228 227 229 230 230 230 230 228 226 225 223 222 223 226 232 241 249 255 260 264 268 274 281 288 294 300 307 316 326 332 334 337 341 342 342 342 344 346
222 224 226 225 224 223 220 218 217 218 222 229 235 240 244 249 252 254 257 261 258 245 231 231 239 243 243 241 242 246 250 249 248 254 260 258 248 235 228 230 235 235 234 236 236 234 232 230 229 229 230 230 230 230 227 224 223 223 224 225 226 231 240 249 255 258 261 265 272 279 286 290 296 303 312 323 329 333 336 339 340 339 340 341 344
223 226 229 230 227 223 219 217 217 220 225 229 233 238 242 245 248 250 253 257 257 246 229 225 232 240 245 247 244 244 249 253 252 254 258 252 238 230 228 230 233 234 234 234 232 228 228 229 231 231 230 229 228 227 224 220 219 222 224 223 225 231 239 248 254 257 260 264 270 277 282 287 293 300 310 320 327 331 334 336 336 336 337 339 343
226 227 228 228 225 221 217 217 219 223 226 230 234 239 243 247 249 251 254 257 259 252 237 227 227 234 244 253 250 241 243 253 255 254 257 254 241 232 230 229 229 229 231 231 227 221 219 223 227 228 228 226 222 219 219 217 218 221 223 222 225 232 239 247 252 255 259 263 269 275 280 285 291 297 306 316 324 328 331 333 333 332 333 337 341
232 231 230 229 225 220 218 219 223 227 231 236 241 246 249 252 253 254 257 260 262 261 250 235 230 233 240 248 248 241 240 251 257 255 258 261 254 241 234 233 232 229 227 227 224 220 218 220 222 223 222 221 219 218 218 218 219 221 222 223 227 233 239 246 251 254 257 262 268 274 279 283 288 294 302 311 319 324 328 330 330 329 330 334 338
Height
3143 3144 3144 3145 3146 3147 3147 3148 3148 3148 3150 3152 3154 3154 3154 3154 3153 3151 3154 3157 3158 3159 3161 3163 3164 3165 3166 3167 3168 3170 3171 3172 3173 3174 3175 3177 3178 3179 3180 3181 3181 3181 3181 3181 3181 3181 3180 3180 3180 3179 3179 3179 3179 3179 3179 3180 3180 3180 3180 3180 3180 3180 3180 3180 3179 3178 3177 3176 3175 3173 3172 3170 3169 3168 3167 3165 3164 3162 3161 3159 3157 3155 3154 3152 3150
3140 3141 3142 3143 3144 3145 3145 3145 3145 3146 3148 3150 3153 3152 3151 3152 3150 3150 3155 3159 3159 3160 3161 3162 3163 3163 3164 3166 3167 3168 3169 3170 3172 3173 3174 3176 3177 3178 3179 3180 3180 3180 3180 3180 3180 3180 3180 3180 3179 3179 3179 3179 3179 3179 3179 3179 3179 3180 3180 3180 3179 3179 3179 3178 3178 3177 3176 3175 3174 3172 3171 3169 3167 3166 3165 3164 3163 3161 3159 3158 3156 3154 3152 3150 3148
3137 3138 3140 3141 3142 3143 3143 3143 3143 3144 3145 3148 3150 3149 3149 3149 3147 3148 3154 3158 3158 3160 3161 3160 3161 3162 3163 3164 3165 3166 3168 3169 3170 3171 3173 3174 3176 3177 3178 3179 3179 3179 3179 3179 3179 3179 3179 3179 3179 3179 3179 3179 3179 3179 3179 3179 3179 3179 3179 3179 3179 3178 3177 3177 3177 3176 3175 3174 3173 3171 3170 3168 3166 3164 3163 3162 3161 3160 3158 3156 3154 3152 3150 3148 3146
3135 3136 3137 3138 3139 3140 3141 3141 3141 3142 3143 3144 3146 3147 3148 3147 3146 3148 3152 3156 3158 3159 3159 3158 3159 3160 3161 3163 3164 3165 3166 3168 3169 3170 3171 3173 3175 3176 3177 3178 3178 3178 3178 3178 3178 3178 3178 3178 3178 3178 3178 3178 3178 3179 3179 3179 3179 3179 3178 3178 3178 3177 3176 3176 3175 3174 3174 3173 3172 3170 3169 3167 3165 3163 3161 3160 3159 3158 3156 3154 3152 3150 3148 3146 3145
3132 3134 3135 3136 3137 3138 3139 3139 3139 3141 3141 3140 3142 3146 3146 3144 3145 3149 3152 3155 3157 3156 3156 3157 3158 3159 3160 3161 3162 3164 3165 3166 3168 3169 3170 3172 3174 3175 3176 3176 3177 3177 3177 3177 3178 3178 3178 3178 3178 3178 3178 3178 3178 3178 3178 3178 3178 3178 3178 3177 3177 3176 3175 3175 3174 3173 3172 3171 3170 3169 3168 3166 3164 3162 3160 3158 3157 3156 3154 3152 3150 3148 3147 3145 3143
3130 3131 3132 3133 3134 3135 3136 3137 3137 3138 3137 3137 3141 3143 3142 3143 3147 3152 3154 3155 3154 3154 3155 3156 3157 3158 3159 3159 3160 3162 3164 3165 3167 3168 3170 3171 3172 3173 3174 3175 3175 3176 3176 3176 3177 3177 3177 3177 3177 3177 3177 3177 3177 3177 3177 3177 3177 3177 3176 3176 3175 3175 3174 3173 3173 3172 3171 3170 3169 3168 3166 3165 3163 3161 3159 3157 3155 3153 3151 3149 3148 3146 3144 3143 3141
3127 3128 3129 3130 3132 3133 3134 3135 3135 3136 3135 3137 3141 3140 3141 3146 3149 3151 3151 3151 3152 3153 3155 3155 3156 3156 3156 3157 3159 3161 3162 3164 3166 3168 3169 3170 3171 3172 3173 3174 3174 3175 3175 3175 3175 3176 3176 3176 3176 3176 3176 3176 3176 3176 3176 3176 3175 3175 3175 3174 3174 3174 3173 3172 3172 3171 3169 3168 3167 3166 3165 3164 3162 3161 3159 3156 3153 3151 3148 3147 3146 3145 3143 3141 3139
3124 3125 3126 3128 3130 3131 3132 3133 3133 3133 3133 3137 3139 3140 3143 3146 3147 3148 3149 3149 3150 3152 3153 3154 3154 3154 3155 3157 3160 3161 3162 3164 3165 3167 3168 3169 3170 3171 3172 3173 3173 3174 3174 3174 3175 3175 3175 3175 3175 3175 3175 3175 3175 3175 3174 3174 3174 3174 3173 3173 3173 3172 3172 3171 3170 3169 3168 3167 3166 3165 3164 3162 3161 3159 3158 3155 3153 3151 3148 3145 3143 3142 3141 3139 3137
3121 3123 3125 3126 3128 3129 3130 3131 3131 3130 3131 3135 3138 3139 3142 3144 3146 3147 3147 3147 3148 3149 3151 3152 3151 3152 3155 3158 3160 3161 3161 3163 3165 3166 3167 3167 3168 3169 3170 3171 3172 3173 3173 3173 3174 3174 3174 3174 3174 3174 3174 3174 3173 3173 3173 3172 3172 3172 3172 3171 3171 3170 3170 3169 3168 3167 3166 3165 3164 3163 3162 3161 3159 3157 3156 3154 3152 3150 3148 3146 3143 3140 3138 3137 3135
3119 3121 3123 3124 3126 3127 3128 3129 3130 3128 3130 3134 3136 3137 3140 3142 3145 3146 3145 3145 3145 3148 3150 3150 3150 3152 3155 3157 3158 3159 3160 3162 3164 3164 3166 3166 3167 3168 3169 3170 3171 3172 3172 3172 3173 3173 3173 3173 3173 3173 3172 3172 3172 3171 3171 3171 3171 3170 3170 3169 3169 3169 3168 3167 3166 3166 3165 3164 3163 3161 3160 3158 3157 3155 3154 3153 3151 3149 3148 3146 3143 3140 3137 3135 3133
3117 3118 3120 3122 3124 3125 3126 3127 3128 3127 3129 3133 3134 3136 3139 3141 3143 3143 3143 3143 3144 3147 3149 3149 3150 3152 3154 3156 3157 3158 3160 3161 3162 3163 3164 3165 3166 3167 3168 3169 3170 3170 3171 3171 3171 3172 3172 3172 3171 3171 3171 3170 3170 3170 3169 3169 3169 3168 3168 3168 3167 3167 3166 3166 3165 3164 3163 3162 3161 3159 3158 3157 3155 3154 3153 3152 3150 3148 3146 3144 3142 3140 3137 3134 3131
3114 3116 3118 3120 3121 3123 3124 3125 3126 3125 3127 3130 3132 3134 3137 3140 3141 3140 3141 3142 3143 3145 3147 3148 3149 3151 3153 3154 3155 3157 3159 3160 3161 3162 3163 3164 3165 3166 3167 3167 3168 3169 3169 3170 3170 3170 3170 3170 3170 3169 3169 3169 3168 3168 3168 3167 3167 3167 3167 3166 3166 3165 3165 3164 3163 3162 3161 3160 3159 3158 3157 3155 3154 3153 3151 3150 3148 3146 3144 3142 3140 3138 3136 3133 3130
3112 3113 3115 3117 3119 3121 3122 3123 3123 3124 3125 3127 3129 3132 3135 3138 3139 3138 3140 3141 3142 3144 3145 3146 3148 3149 3151 3152 3153 3155 3157 3159 3160 3161 3162 3162 3163 3164 3165 3166 3167 3167 3168 3168 3169 3168 3168 3168 3168 3168 3167 3167 3167 3167 3166 3166 3166 3166 3165 3165 3165 3164 3163 3163 3162 3161 3160 3159 3158 3157 3155 3154 3152 3151 3149 3148 3146 3144 3142 3141 3139 3137 3135 3132 3129
3109 3111 3113 3115 3117 3118 3120 3121 3122 3123 3124 3125 3127 3129 3133 3136 3136 3136 3138 3140 3141 3143 3143 3145 3147 3149 3150 3151 3153 3155 3156 3157 3158 3159 3160 3161 3162 3163 3164 3165 3165 3166 3166 3167 3167 3167 3167 3166 3166 3166 3166 3166 3165 3165 3165 3164 3164 3164 3164 3164 3163 3163 3162 3161 3160 3160 3159 3158 3156 3155 3154 3152 3151 3149 3147 3146 3144 3142 3141 3139 3138 3136 3134 3132 3128
3107 3108 3110 3112 3114 3116 3118 3119 3120 3121 3122 3124 3125 3128 3132 3134 3135 3135 3136 3139 3141 3142 3142 3144 3146 3148 3149 3151 3152 3154 3155 3156 3157 3158 3159 3160 3161 3161 3162 3163 3164 3164 3165 3165 3165 3165 3165 3165 3165 3164 3164 3164 3163 3163 3163 3163 3163 3163 3163 3162 3162 3161 3161 3160 3159 3158 3157 3156 3155 3153 3152 3150 3149 3147 3145 3144 3142 3140 3139 3137 3136 3135 3134 3132 3129
3104 3105 3108 3110 3112 3114 3116 3117 3118 3119 3121 3123 3124 3127 3130 3133 3134 3133 3135 3139 3140 3141 3142 3144 3145 3147 3148 3150 3151 3152 3153 3154 3156 3157 3158 3159 3160 3160 3161 3162 3162 3163 3163 3163 3163 3163 3163 3163 3163 3163 3162 3162 3161 3161 3161 3161 3161 3161 3161 3161 3160 3160 3159 3158 3158 3157 3156 3155 3153 3152 3150 3149 3147 3145 3143 3142 3140 3139 3137 3135 3134 3132 3131 3130 3128
3101 3103 3105 3107 3109 3112 3114 3115 3116 3117 3119 3121 3123 3126 3129 3131 3132 3132 3135 3139 3139 3140 3142 3143 3145 3146 3147 3149 3150 3151 3152 3153 3154 3156 3157 3158 3158 3159 3159 3160 3160 3161 3161 3162 3162 3161 3161 3161 3161 3161 3160 3160 3160 3160 3160 3160 3160 3160 3160 3159 3159 3158 3158 3157 3156 3155 3154 3153 3151 3150 3149 3147 3145 3143 3141 3140 3138 3137 3135 3133 3131 3129 3127 3125 3124
3099 3100 3102 3104 3107 3110 3111 3113 3115 3116 3118 3120 3122 3124 3126 3128 3129 3130 3135 3137 3138 3140 3142 3143 3145 3146 3147 3148 3149 3150 3151 3152 3153 3155 3156 3156 3157 3157 3158 3158 3159 3159 3159 3160 3160 3160 3160 3160 3159 3159 3159 3159 3158 3158 3158 3158 3158 3158 3158 3158 3157 3157 3156 3155 3155 3154 3152 3151 3150 3148 3146 3145 3143 3141 3140 3138 3137 3135 3133 3131 3129 3127 3125 3122 3121
3095 3096 3098 3100 3104 3107 3109 3111 3112 3114 3116 3118 3120 3122 3124 3126 3127 3129 3132 3135 3137 3138 3140 3142 3145 3145 3146 3147 3148 3149 3150 3151 3152 3153 3154 3155 3155 3155 3156 3156 3157 3157 3157 3158 3158 3158 3158 3158 3157 3157 3157 3157 3157 3157 3157 3157 3157 3157 3157 3156 3156 3155 3155 3154 3153 3151 3150 3149 3147 3146 3144 3143 3141 3140 3138 3137 3135 3133 3131 3128 3126 3124 3122 3120 3118
3092 3093 3095 3097 3101 3104 3106 3108 3110 3112 3113 3116 3118 3121 3122 3124 3125 3127 3130 3133 3135 3137 3138 3140 3142 3143 3144 3145 3146 3148 3149 3150 3151 3152 3152 3153 3153 3154 3154 3154 3155 3155 3156 3156 3156 3156 3156 3156 3156 3156 3156 3155 3155 3155 3155 3156 3156 3155 3155 3155 3154 3154 3153 3152 3151 3149 3148 3147 3145 3144 3142 3141 3140 3138 3137 3135 3133 3131 3129 3126 3124 3122 3120 3118 3116
3089 3091 3092 3095 3099 3102 3104 3106 3108 3109 3111 3114 3116 3118 3120 3122 3123 3125 3129 3131 3133 3135 3136 3138 3140 3141 3143 3144 3145 3146 3147 3148 3149 3150 3151 3151 3151 3152 3152 3153 3153 3153 3154 3154 3154 3154 3154 3154 3154 3154 3154 3154 3154 3154 3154 3154 3154 3154 3154 3153 3153 3152 3151 3150 3149 3147 3146 3145 3143 3142 3141 3140 3138 3137 3135 3133 3131 3129 3127 3125 3123 3120 3118 3116 3114
3087 3088 3090 3093 3097 3099 3101 3103 3105 3107 3109 3111 3114 3116 3118 3120 3121 3124 3126 3128 3130 3132 3134 3136 3138 3139 3141 3142 3143 3144 3146 3147 3147 3148 3149 3149 3150 3150 3150 3151 3151 3152 3152 3153 3153 3153 3153 3153 3152 3152 3152 3152 3152 3153 3153 3153 3153 3153 3153 3152 3151 3150 3149 3148 3147 3146 3145 3143 3142 3141 3140 3138 3137 3135 3134 3132 3130 3128 3126 3124 3122 3120 3118 3115 3113
3084 3086 3089 3092 3095 3097 3099 3100 3102 3104 3107 3109 3112 3114 3116 3118 3120 3121 3124 3126 3128 3130 3132 3134 3135 3137 3138 3140 3141 3142 3144 3145 3146 3147 3147 3148 3148 3148 3148 3149 3149 3150 3151 3151 3151 3151 3151 3150 3150 3150 3151 3151 3151 3151 3151 3151 3151 3151 3151 3150 3150 3148 3148 3147 3146 3145 3144 3142 3141 3140 3139 3137 3136 3134 3132 3131 3129 3128 3126 3124 3121 3119 3117 3115 3112
3082 3084 3087 3089 3092 3094 3096 3097 3100 3102 3105 3107 3110 3112 3114 3116 3118 3119 3121 3124 3126 3128 3130 3131 3133 3135 3136 3138 3139 3140 3142 3143 3144 3144 3145 3146 3146 3146 3147 3147 3148 3148 3149 3149 3149 3149 3149 3148 3149 3149 3149 3149 3150 3150 3150 3150 3150 3150 3149 3149 3148 3147 3146 3145 3144 3144 3142 3141 3140 3139 3138 3136 3134 3133 3131 3130 3128 3127 3125 3123 3121 3119 3117 3114 3112
3079 3082 3084 3086 3089 3091 3093 3095 3098 3100 3102 3105 3108 3110 3112 3114 3116 3117 3120 3122 3124 3126 3128 3129 3131 3133 3134 3136 3137 3139 3140 3141 3142 3142 3143 3144 3144 3144 3145 3145 3146 3146 3147 3147 3147 3147 3147 3147 3147 3147 3148 3148 3148 3148 3148 3148 3148 3148 3148 3147 3146 3146 3145 3144 3143 3142 3141 3140 3139 3138 3137 3135 3134 3132 3130 3129 3127 3126 3124 3122 3120 3118 3116 3113 3111
3078 3080 3082 3084 3086 3088 3091 3094 3096 3098 3101 3103 3106 3108 3110 3112 3114 3116 3118 3120 3122 3124 3126 3127 3129 3131 3132 3134 3135 3136 3138 3139 3140 3140 3141 3142 3142 3142 3143 3143 3144 3144 3145 3145 3145 3145 3145 3145 3145 3145 3146 3146 3147 3147 3147 3147 3147 3147 3146 3146 3145 3144 3144 3143 3142 3141 3140 3139 3138 3137 3136 3134 3133 3131 3129 3128 3126 3125 3123 3121 3119 3117 3115 3112 3110
3076 3078 3080 3082 3084 3086 3089 3092 3094 3096 3099 3102 3104 3106 3108 3110 3112 3114 3116 3118 3120 3122 3123 3125 3127 3129 3130 3132 3133 3134 3135 3137 3138 3138 3139 3140 3140 3140 3141 3141 3142 3142 3143 3143 3143 3142 3142 3143 3143 3144 3144 3145 3145 3145 3145 3145 3145 3145 3144 3144 3143 3143 3142 3142 3141 3140 3139 3138 3137 3136 3135 3133 3132 3130 3129 3127 3125 3123 3122 3120 3118 3116 3113 3111 3108
3074 3076 3078 3080 3082 3084 3086 3089 3092 3095 3097 3100 3102 3104 3106 3108 3110 3112 3114 3116 3118 3119 3121 3123 3125 3126 3128 3129 3131 3132 3133 3134 3135 3136 3137 3137 3138 3138 3138 3139 3139 3140 3141 3141 3140 3140 3140 3141 3141 3142 3143 3143 3144 3144 3143 3143 3143 3143 3143 3142 3142 3141 3141 3140 3140 3139 3138 3137 3136 3135 3133 3132 3130 3129 3128 3126 3124 3122 3121 3119 3117 3115 3112 3109 3106
3072 3073 3075 3078 3080 3082 3084 3087 3090 3092 3095 3097 3100 3102 3104 3106 3108 3110 3111 3113 3115 3117 3119 3121 3123 3124 3126 3127 3128 3130 3131 3132 3133 3134 3134 3135 3135 3136 3136 3137 3137 3138 3138 3138 3138 3138 3139 3139 3140 3140 3141 3142 3142 3142 3142 3141 3141 3141 3141 3141 3140 3140 3140 3139 3139 3138 3137 3136 3135 3134 3132 3131 3129 3128 3126 3124 3123 3121 3119 3117 3115 3113 3110 3107 3104
3069 3071 3074 3077 3079 3081 3083 3085 3088 3090 3092 3095 3097 3099 3102 3104 3106 3107 3109 3111 3113 3115 3117 3119 3120 3122 3123 3125 3126 3127 3129 3130 3130 3131 3132 3132 3133 3133 3134 3134 3135 3135 3136 3136 3136 3136 3137 3137 3138 3139 3139 3140 3140 3140 3140 3140 3140 3140 3139 3139 3139 3139 3139 3138 3138 3137 3136 3135 3134 3133 3131 3130 3128 3127 3125 3123 3121 3119 3117 3115 3113 3110 3108 3105 3102
3067 3070 3072 3075 3077 3079 3081 3083 3085 3088 3090 3093 3095 3097 3100 3102 3104 3105 3107 3109 3111 3112 3114 3116 3117 3119 3121 3122 3123 3125 3126 3127 3128 3128 3129 3130 3130 3131 3131 3132 3132 3133 3133 3133 3134 3134 3135 3136 3136 3137 3137 3138 3138 3138 3138 3138 3138 3138 3138 3137 3137 3137 3137 3137 3137 3136 3135 3134 3133 3132 3131 3129 3128 3126 3124 3122 3120 3118 3116 3114 3112 3109 3106 3103 3100
3066 3068 3070 3072 3074 3076 3078 3081 3083 3085 3088 3090 3093 3095 3097 3099 3101 3103 3104 3106 3108 3110 3111 3113 3115 3116 3117 3119 3120 3121 3123 3124 3124 3125 3126 3127 3128 3128 3129 3129 3130 3130 3131 3131 3132 3132 3133 3134 3134 3135 3135 3136 3136 3136 3136 3136 3136 3136 3136 3136 3136 3136 3136 3136 3135 3134 3134 3133 3132 3131 3130 3128 3127 3125 3123 3121 3120 3118 3116 3113 3111 3108 3105 3102 3099
3064 3066 3068 3071 3072 3074 3077 3079 3082 3084 3086 3089 3091 3093 3095 3097 3099 3101 3102 3104 3105 3107 3108 3110 3112 3113 3115 3116 3117 3118 3119 3120 3121 3122 3123 3124 3125 3126 3126 3127 3127 3128 3128 3129 3130 3130 3131 3132 3132 3133 3133 3134 3134 3134 3134 3135 3135 3134 3134 3135 3135 3135 3135 3135 3134 3133 3132 3132 3131 3130 3129 3128 3126 3125 3123 3121 3119 3117 3115 3113 3111 3108 3106 3103 3100
3063 3065 3067 3069 3071 3073 3075 3077 3080 3082 3085 3087 3089 3091 3093 3095 3096 3098 3100 3101 3103 3104 3106 3107 3109 3110 3112 3113 3114 3115 3116 3117 3117 3118 3120 3121 3122 3123 3123 3124 3125 3125 3126 3127 3127 3128 3129 3129 3130 3130 3131 3131 3132 3132 3133 3133 3133 3133 3133 3133 3134 3134 3134 3133 3133 3132 3131 3131 3130 3129 3128 3127 3126 3124 3122 3120 3119 3117 3115 3113 3110 3108 3105 3103 3100
3062 3064 3065 3067 3069 3071 3073 3076 3078 3080 3082 3084 3086 3088 3090 3092 3094 3095 3097 3099 3100 3101 3103 3104 3106 3107 3108 3109 3110 3111 3112 3112 3113 3115 3116 3118 3119 3120 3120 3121 3122 3123 3124 3124 3125 3126 3126 3127 3128 3128 3129 3129 3130 3131 3131 3131 3131 3131 3131 3132 3132 3132 3132 3132 3131 3131 3130 3130 3129 3128 3127 3126 3125 3123 3122 3120 3118 3117 3115 3112 3110 3107 3105 3102 3099
3061 3063 3065 3067 3069 3071 3073 3075 3077 3079 3080 3082 3084 3086 3088 3089 3091 3093 3094 3095 3097 3098 3100 3101 3102 3103 3104 3104 3105 3106 3106 3106 3108 3111 3113 3114 3116 3117 3118 3118 3119 3120 3121 3122 3123 3123 3124 3125 3125 3126 3126 3127 3128 3129 3129 3129 3129 3129 3130 3130 3131 3131 3130 3130 3129 3129 3129 3128 3128 3127 3126 3125 3124 3122 3121 3119 3118 3116 3114 3112 3109 3107 3105 3102 3099
3060 3062 3064 3066 3067 3069 3071 3073 3075 3077 3079 3080 3082 3084 3085 3087 3088 3090 3091 3092 3094 3095 3096 3097 3098 3099 3099 3099 3100 3102 3103 3103 3105 3108 3110 3111 3113 3114 3115 3115 3116 3117 3118 3119 3120 3121 3121 3122 3123 3124 3124 3125 3126 3127 3127 3127 3127 3127 3128 3129 3129 3129 3129 3128 3128 3128 3127 3127 3127 3126 3125 3124 3123 3121 3120 3118 3117 3115 3113 3111 3109 3107 3105 3102 3099
3058 3060 3062 3063 3065 3067 3070 3071 3073 3075 3076 3078 3080 3081 3083 3084 3086 3087 3088 3090 3091 3092 3093 3094 3094 3094 3095 3096 3098 3101 3103 3104 3104 3106 3107 3108 3109 3110 3111 3112 3113 3114 3115 3116 3117 3118 3119 3120 3121 3121 3122 3123 3124 3124 3125 3125 3125 3126 3126 3127 3127 3127 3127 3127 3126 3126 3126 3126 3125 3124 3123 3122 3121 3120 3118 3117 3115 3114 3112 3110 3108 3106 3103 3101 3098
3057 3059 3060 3062 3064 3066 3068 3069 3071 3073 3074 3076 3077 3079 3080 3082 3083 3084 3085 3087 3088 3089 3089 3090 3090 3092 3094 3096 3096 3097 3100 3102 3102 3103 3104 3105 3106 3107 3107 3108 3110 3111 3112 3113 3114 3115 3116 3117 3118 3119 3120 3120 3121 3122 3123 3123 3123 3124 3124 3125 3125 3125 3125 3125 3125 3125 3124 3124 3124 3123 3122 3121 3120 3119 3117 3115 3114 3113 3111 3109 3107 3105 3102 3099 3096
3056 3057 3059 3061 3063 3065 3066 3068 3070 3071 3073 3074 3075 3077 3078 3079 3080 3081 3082 3084 3085 3085 3086 3086 3087 3090 3092 3093 3093 3094 3096 3098 3098 3099 3101 3101 3102 3103 3103 3105 3106 3107 3109 3110 3112 3113 3114 3114 3115 3116 3117 3118 3119 3120 3120 3121 3121 3122 3122 3123 3123 3123 3123 3123 3123 3123 3123 3123 3122 3122 3120 3119 3118 3117 3115 3114 3112 3111 3109 3107 3105 3103 3100 3097 3094
3055 3057 3059 3060 3062 3064 3066 3067 3069 3070 3071 3072 3074 3075 3076 3077 3078 3078 3079 3081 3081 3082 3082 3083 3085 3088 3090 3090 3091 3091 3093 3095 3096 3096 3097 3098 3099 3099 3100 3101 3102 3104 3106 3107 3109 3110 3111 3112 3113 3114 3115 3116 3117 3117 3118 3118 3119 3119 3120 3120 3121 3121 3122 3122 3122 3121 3121 3121 3121 3120 3119 3118 3117 3116 3114 3112 3111 3110 3108 3105 3103 3101 3098 3095 3093
3053 3055 3057 3059 3061 3063 3064 3066 3067 3068 3069 3070 3072 3073 3074 3074 3075 3076 3077 3077 3078 3079 3079 3081 3083 3085 3086 3087 3089 3089 3090 3091 3093 3094 3095 3096 3096 3096 3097 3097 3099 3101 3103 3104 3105 3107 3108 3109 3110 3111 3112 3113 3114 3115 3115 3116 3117 3117 3117 3118 3119 3119 3120 3120 3120 3120 3119 3119 3119 3118 3118 3117 3116 3114 3113 3111 3109 3108 3106 3104 3102 3099 3097 3094 3091
3052 3054 3056 3058 3060 3061 3063 3064 3065 3067 3068 3069 3070 3071 3071 3072 3073 3074 3074 3074 3075 3076 3077 3078 3079 3081 3082 3084 3085 3087 3087 3088 3089 3090 3092 3092 3093 3094 3094 3094 3096 3098 3100 3100 3102 3103 3104 3106 3107 3109 3110 3111 3111 3112 3113 3113 3114 3114 3115 3116 3117 3117 3118 3118 3118 3118 3118 3117 3117 3117 3116 3115 3114 3113 3111 3109 3107 3106 3105 3102 3100 3098 3095 3093 3090
3051 3053 3054 3056 3058 3060 3061 3063 3064 3065 3066 3067 3068 3069 3070 3070 3071 3071 3071 3072 3072 3073 3073 3074 3076 3077 3079 3081 3082 3084 3084 3085 3085 3086 3087 3089 3090 3091 3091 3091 3093 3095 3096 3097 3098 3100 3101 3103 3105 3106 3107 3108 3109 3110 3110 3111 3111 3112 3112 3113 3114 3115 3116 3116 3116 3116 3116 3116 3116 3115 3114 3113 3112 3111 3110 3108 3106 3105 3103 3101 3099 3096 3094 3092 3089
3050 3051 3053 3055 3056 3058 3059 3061 3062 3063 3064 3065 3066 3067 3067 3068 3068 3069 3069 3069 3070 3070 3070 3071 3073 3075 3076 3078 3079 3080 3081 3081 3082 3083 3084 3085 3087 3087 3088 3089 3091 3092 3094 3095 3096 3097 3099 3100 3102 3103 3104 3105 3106 3107 3108 3108 3109 3110 3110 3111 3112 3113 3114 3114 3115 3114 3114 3114 3114 3113 3112 3112 3111 3110 3108 3106 3104 3103 3102 3100 3097 3095 3093 3090 3088
3048 3049 3051 3052 3054 3055 3057 3059 3060 3061 3062 3062 3063 3064 3065 3066 3066 3067 3067 3067 3067 3068 3068 3069 3071 3072 3074 3075 3076 3076 3077 3078 3079 3080 3081 3082 3083 3084 3085 3087 3088 3090 3091 3092 3093 3094 3096 3097 3099 3100 3101 3102 3103 3104 3105 3106 3106 3107 3108 3109 3110 3111 3112 3112 3113 3113 3112 3112 3112 3111 3111 3110 3109 3108 3106 3104 3102 3101 3100 3097 3095 3093 3091 3089 3086
3046 3047 3049 3050 3051 3053 3055 3056 3058 3059 3059 3060 3061 3062 3063 3064 3064 3065 3065 3065 3065 3065 3066 3068 3069 3070 3071 3072 3073 3074 3075 3075 3076 3077 3078 3079 3080 3080 3081 3083 3085 3086 3088 3089 3090 3091 3093 3094 3096 3097 3098 3099 3100 3101 3102 3103 3104 3105 3106 3106 3107 3108 3109 3110 3110 3110 3110 3110 3109 3109 3109 3108 3107 3106 3104 3102 3101 3099 3098 3096 3093 3091 3090 3088 3085
3044 3045 3046 3048 3049 3051 3052 3054 3055 3056 3057 3057 3058 3059 3061 3061 3062 3062 3062 3062 3062 3063 3064 3066 3067 3067 3068 3069 3070 3072 3072 3072 3073 3074 3075 3076 3077 3077 3079 3081 3082 3083 3085 3086 3088 3089 3091 3092 3093 3094 3095 3096 3098 3099 3100 3100 3101 3102 3103 3104 3105 3106 3107 3108 3108 3108 3108 3107 3107 3107 3107 3106 3105 3104 3103 3101 3099 3097 3096 3094 3092 3090 3088 3087 3084
3041 3042 3044 3046 3047 3048 3050 3051 3052 3053 3054 3054 3055 3056 3058 3059 3059 3059 3059 3059 3060 3060 3061 3063 3064 3064 3065 3065 3067 3069 3069 3069 3070 3071 3072 3073 3073 3074 3076 3078 3079 3081 3082 3084 3085 3087 3088 3090 3090 3091 3092 3094 3095 3096 3096 3097 3098 3099 3100 3100 3102 3103 3104 3105 3105 3105 3105 3105 3105 3105 3104 3104 3103 3102 3101 3099 3097 3096 3094 3092 3090 3088 3087 3085 3083
3039 3040 3041 3043 3044 3045 3047 3048 3049 3050 3051 3051 3052 3054 3055 3056 3056 3056 3057 3057 3057 3057 3058 3060 3061 3061 3062 3062 3064 3065 3066 3067 3068 3069 3069 3070 3070 3071 3072 3073 3075 3076 3078 3080 3081 3083 3084 3085 3086 3088 3090 3091 3091 3091 3091 3093 3094 3095 3096 3097 3099 3100 3102 3102 3103 3103 3103 3102 3102 3102 3102 3102 3101 3100 3099 3097 3096 3094 3093 3091 3089 3087 3085 3083 3082
3037 3038 3039 3040 3041 3043 3044 3045 3046 3047 3048 3049 3050 3051 3052 3052 3053 3053 3054 3054 3054 3055 3055 3057 3057 3059 3059 3060 3061 3062 3064 3064 3065 3066 3066 3066 3067 3068 3069 3070 3070 3071 3073 3075 3077 3078 3079 3080 3081 3083 3085 3086 3086 3086 3087 3090 3091 3093 3094 3095 3097 3098 3099 3100 3100 3100 3100 3100 3100 3100 3100 3100 3099 3098 3097 3096 3094 3093 3091 3090 3088 3086 3084 3082 3080